Location: George Washington National Forest Helicopter Landing Site
(38.6463°N, 79.0851°W)
Time: 18:10:30
(UTC-04:00)

Tiros 1 despin weight - Pass Details

Date: 19 August 2019
Orbit: 594 x 642 km, 48.2° (Epoch: 17 September)

Event Time Altitude Azimuth Distance (km) Brightness Sun altitude
Rises 08:45:38 0° 295° (WNW) 2,909 ? 24.6°
Reaches altitude 10° 08:48:07 10° 286° (WNW) 2,007 ? 25.1°
Maximum altitude 08:52:14 32° 223° (SW) 1,082 ? 25.9°
Drops below altitude 10° 08:56:22 10° 160° (SSE) 2,015 ? 26.7°
Sets 08:58:53 0° 151° (SSE) 2,924 ? 27.1°
